Retour au catalogue

COSMOS 1481 DEB

LostHEO
NORAD 27907·DEBRIS·🇷🇺 Russia

Lancé Jul 8, 1983 depuis Plesetsk Cosmodrome

Loading…

Prochains Passages (prochaines 24 heures)

TLE

PériméSource: Space-Track

Époque: Apr 22, 2023, 03:02 UTC

1 27907U 83070J   23112.12670061  .00000728  00000-0  00000+0 0  9991
2 27907  69.5115 281.3483 6399046 300.8153  11.3847  1.98541550186074

Suivez COSMOS 1481 DEB en temps réel avec AllMySat

Download on the App Store